Vorticity
1 -3 13 3 0 -18 -9 1 5 0 9 -12 11 13 23 9 6 3 0 1 -2 -3 3 8 5 7 11 6 15 13 11 6 6 7 12 13 12 2 9 12 10 9 7 3
-3 3 2 -3 3 2 29 10 11 9 -5 22 8 8 32 4 6 8 -5 2 14 1 -15 2 8 -6 0 1 7 13 8 7 12 19 16 13 12 9 5 5 3 14 11 10
2 3 24 6 10 23 -1 2 11 8 2 15 -2 0 20 12 20 12 17 9 -6 20 5 -5 -2 11 0 5 8 14 7 7 11 26 21 15 14 8 6 1 10 11 1 -0
8 3 -19 -4 13 7 5 8 10 2 12 -4 9 -6 -5 24 32 3 30 8 2 5 5 -1 13 -11 23 3 5 6 9 7 8 19 17 15 15 9 18 2 4 2 9 6
11 26 5 -1 20 4 22 26 28 12 6 12 8 13 -8 -4 15 29 12 27 17 10 6 5 -0 17 13 -10 1 6 5 11 12 7 19 15 16 12 4 5 6 5 7 6
3 -15 -24 12 21 -5 -6 6 -6 12 10 22 25 10 0 20 34 -14 27 12 14 15 11 4 8 7 0 11 8 3 6 11 11 12 11 19 17 11 6 12 7 10 21 31
2 1 -3 -4 -2 5 21 -2 18 20 19 -7 8 19 -19 13 17 9 23 30 18 14 16 20 4 28 16 -28 31 9 11 10 10 2 11 12 16 4 7 15 6 9 18 22
-16 41 2 -7 -3 -2 5 -4 -14 9 6 -1 16 9 -1 20 51 14 22 8 5 21 7 4 7 10 11 22 7 6 12 3 -1 -7 18 15 11 14 9 10 5 4 6 12
27 8 -14 0 28 14 15 16 25 -6 9 14 8 3 29 14 -6 -3 -1 4 14 15 9 13 14 19 22 -17 7 13 12 3 -0 -3 13 25 15 9 6 16 7 5 4 9
12 -6 10 26 15 -4 24 15 4 5 7 8 17 16 -14 9 4 14 7 9 26 24 22 4 14 8 19 9 7 9 6 5 -2 -0 -11 37 23 14 4 11 13 10 7 4
12 -13 -36 39 20 5 8 12 1 3 -5 3 5 -4 -5 12 12 3 9 12 6 24 8 22 13 15 5 16 6 2 15 8 3 -3 1 36 20 12 10 12 13 9 11 6
18 12 7 -30 -12 -2 3 -2 21 -9 14 7 -4 -17 20 17 18 -4 11 23 3 0 15 -3 3 13 10 4 8 12 12 12 9 5 30 31 23 6 15 9 6 11 9 11
9 15 -5 43 23 23 10 10 -10 7 15 0 -17 -27 -22 5 3 15 20 8 20 18 7 10 16 -0 34 1 15 14 6 10 14 14 15 16 23 8 14 7 10 20 21 13
7 7 1 -32 -19 13 35 29 37 9 -8 -1 -25 -10 12 12 12 7 25 5 7 15 9 -8 21 15 -10 13 8 17 8 7 15 16 25 22 14 18 8 9 12 3 7 7
35 2 11 -6 -5 0 -10 -20 7 14 19 20 39 25 27 31 1 11 3 40 6 7 26 17 1 25 -4 10 12 3 8 17 2 19 23 22 14 10 11 8 4 3 26 18
22 31 30 8 3 5 2 21 -8 1 12 2 15 14 13 27 5 5 13 23 28 15 8 20 -4 19 9 8 15 9 -6 6 6 11 13 15 13 10 6 13 4 15 4 19
3 15 29 63 34 33 33 7 -5 -0 -9 -6 4 8 22 -0 15 -1 18 2 -1 13 -2 15 -3 25 12 11 15 14 2 -18 12 -2 6 8 9 12 12 8 -0 4 -2 9
14 13 0 8 8 9 24 15 2 -6 -2 -3 -2 6 16 10 9 3 18 32 43 28 11 9 24 10 4 4 15 24 8 -2 -6 13 15 6 7 12 6 7 2 1 11 13
-5 4 10 3 19 4 2 10 17 20 24 24 14 3 13 14 -0 7 18 32 13 19 6 12 13 7 9 5 2 19 5 12 9 13 1 6 9 6 11 2 2 15 11 11
23 -7 9 19 10 2 24 24 14 7 21 24 17 7 9 19 -3 8 11 2 33 5 -6 24 21 9 4 0 6 1 4 15 14 6 9 5 10 9 6 4 8 10 11 10
18 17 3 3 13 22 -2 16 -1 19 16 17 12 9 13 6 8 10 22 -1 8 12 7 6 10 6 7 4 1 7 4 14 14 10 10 9 6 4 6 6 6 13 9 10
-0 8 25 18 9 13 7 13 13 20 12 20 11 19 18 21 6 10 17 -13 26 9 -0 5 3 18 11 11 7 7 9 13 10 14 6 7 8 6 10 11 13 13 11 11
14 8 -2 5 8 4 4 5 -1 -1 7 16 9 19 32 21 26 -13 10 17 5 10 14 14 11 19 7 10 5 15 15 12 12 9 11 10 10 10 10 13 13 8 11 12
24 18 8 8 15 12 9 8 31 8 9 5 12 13 18 34 7 28 31 6 18 10 13 4 8 12 2 11 4 26 6 5 5 15 17 10 5 12 11 11 10 11 10 9
-4 6 21 15 23 20 30 23 21 14 4 4 3 5 8 5 17 18 18 22 26 13 -1 15 3 17 12 14 18 7 10 9 6 5 17 16 11 9 13 12 11 11 10 10
3 12 11 13 2 5 11 23 23 19 13 11 7 13 14 20 19 9 10 17 25 11 21 -6 2 3 4 5 10 1 3 -2 5 9 2 14 16 13 14 14 11 9 8 9
Height
3181 3183 3181 3183 3185 3187 3187 3186 3186 3186 3185 3185 3183 3183 3182 3182 3181 3179 3181 3183 3183 3186 3190 3191 3193 3193 3194 3195 3195 3196 3197 3197 3198 3198 3200 3200 3202 3205 3208 3211 3212 3215 3216 3219
3180 3178 3181 3184 3185 3186 3185 3185 3184 3184 3184 3183 3181 3180 3181 3180 3178 3177 3177 3179 3179 3182 3186 3188 3190 3190 3191 3193 3192 3193 3195 3194 3194 3193 3195 3197 3199 3202 3205 3208 3210 3212 3214 3216
3175 3176 3181 3183 3183 3182 3181 3182 3183 3183 3182 3180 3178 3177 3177 3175 3173 3173 3172 3173 3175 3178 3180 3183 3184 3186 3188 3191 3191 3190 3191 3191 3191 3189 3190 3193 3195 3198 3201 3205 3209 3211 3212 3213
3174 3175 3178 3179 3178 3180 3180 3181 3181 3182 3182 3181 3178 3173 3172 3169 3167 3166 3166 3167 3167 3172 3175 3179 3180 3183 3186 3187 3188 3187 3188 3189 3188 3187 3188 3191 3194 3197 3201 3204 3206 3208 3209 3211
3169 3172 3176 3177 3178 3179 3180 3180 3180 3180 3182 3179 3177 3175 3164 3164 3162 3159 3160 3161 3164 3166 3170 3172 3177 3179 3183 3184 3185 3185 3185 3185 3186 3186 3186 3189 3191 3194 3197 3200 3204 3205 3206 3208
3167 3171 3173 3176 3176 3179 3181 3178 3180 3179 3180 3179 3172 3172 3157 3157 3158 3157 3155 3156 3158 3162 3165 3167 3173 3176 3179 3182 3182 3183 3183 3182 3184 3184 3185 3187 3190 3192 3194 3197 3200 3201 3201 3201
3163 3165 3170 3172 3175 3176 3176 3177 3177 3181 3178 3173 3168 3168 3157 3156 3154 3153 3151 3153 3156 3159 3162 3164 3170 3173 3176 3178 3178 3180 3180 3181 3182 3183 3184 3185 3187 3190 3192 3193 3196 3198 3199 3201
3159 3161 3164 3166 3170 3173 3173 3173 3174 3178 3178 3169 3167 3161 3156 3154 3152 3152 3152 3154 3154 3156 3159 3162 3165 3169 3173 3175 3176 3177 3178 3180 3181 3181 3181 3182 3184 3187 3189 3191 3193 3196 3198 3201
3155 3156 3161 3163 3166 3168 3167 3167 3170 3172 3172 3170 3162 3157 3155 3153 3151 3149 3148 3148 3148 3152 3156 3159 3162 3166 3170 3172 3174 3175 3176 3177 3179 3179 3178 3178 3180 3184 3186 3188 3191 3194 3197 3200
3150 3152 3156 3160 3162 3165 3163 3166 3168 3170 3173 3168 3157 3154 3151 3150 3149 3147 3146 3146 3145 3146 3151 3156 3159 3164 3168 3170 3172 3173 3173 3174 3174 3174 3174 3174 3176 3180 3183 3185 3189 3192 3196 3199
3145 3149 3153 3154 3156 3158 3160 3160 3161 3164 3164 3160 3159 3150 3148 3148 3147 3144 3143 3144 3144 3144 3151 3154 3158 3163 3166 3168 3169 3170 3170 3171 3171 3170 3171 3170 3173 3177 3180 3184 3187 3190 3194 3196
3138 3141 3142 3148 3151 3153 3155 3156 3157 3157 3157 3155 3154 3148 3145 3144 3145 3143 3141 3142 3144 3146 3151 3153 3156 3160 3163 3164 3165 3168 3167 3168 3168 3167 3166 3166 3170 3175 3179 3183 3186 3189 3192 3194
3133 3137 3139 3142 3146 3145 3147 3149 3152 3151 3151 3151 3152 3143 3142 3142 3142 3141 3139 3138 3141 3144 3148 3151 3154 3157 3158 3161 3162 3165 3165 3166 3166 3165 3165 3166 3169 3173 3177 3181 3184 3187 3190 3192
3128 3131 3132 3135 3136 3139 3141 3143 3145 3147 3147 3145 3143 3139 3139 3139 3139 3139 3139 3138 3141 3143 3146 3149 3151 3153 3158 3160 3160 3162 3163 3165 3165 3164 3163 3164 3169 3173 3177 3180 3184 3187 3190 3192
3121 3123 3126 3128 3131 3134 3137 3139 3139 3139 3140 3141 3135 3135 3134 3135 3135 3136 3137 3136 3136 3139 3141 3145 3147 3151 3154 3155 3158 3160 3162 3164 3166 3165 3165 3167 3170 3174 3177 3181 3184 3186 3188 3190
3117 3119 3121 3124 3127 3129 3132 3134 3136 3136 3135 3134 3133 3132 3130 3130 3130 3132 3132 3132 3133 3134 3137 3141 3146 3150 3152 3155 3158 3158 3161 3164 3167 3167 3168 3169 3172 3175 3178 3181 3185 3186 3188 3190
3117 3117 3117 3119 3122 3125 3127 3128 3129 3131 3132 3132 3131 3131 3128 3128 3127 3126 3124 3125 3127 3129 3134 3138 3143 3147 3151 3154 3155 3156 3161 3164 3167 3168 3169 3171 3174 3176 3179 3182 3184 3186 3189 3189
3114 3114 3115 3117 3120 3122 3121 3124 3125 3124 3126 3127 3127 3126 3125 3126 3126 3124 3123 3120 3121 3125 3131 3135 3141 3145 3151 3154 3154 3157 3159 3163 3164 3167 3169 3171 3174 3176 3179 3182 3184 3186 3187 3189
3112 3113 3113 3113 3114 3115 3117 3119 3120 3119 3119 3120 3122 3121 3121 3123 3122 3123 3120 3120 3122 3125 3130 3134 3139 3144 3149 3152 3154 3156 3158 3160 3163 3166 3168 3171 3173 3176 3178 3181 3183 3184 3187 3187
3108 3110 3111 3109 3108 3111 3112 3115 3116 3115 3112 3113 3114 3115 3117 3119 3119 3121 3119 3119 3121 3124 3128 3132 3137 3141 3146 3150 3153 3157 3158 3159 3161 3164 3168 3170 3173 3175 3177 3180 3181 3181 3183 3184
3104 3105 3106 3107 3105 3106 3108 3110 3111 3111 3113 3108 3109 3109 3111 3113 3116 3120 3120 3119 3121 3124 3128 3133 3135 3140 3144 3148 3152 3155 3156 3157 3161 3163 3166 3168 3169 3173 3175 3177 3178 3179 3180 3180
3102 3103 3102 3103 3104 3105 3104 3106 3108 3109 3107 3106 3105 3105 3105 3108 3112 3116 3118 3120 3121 3124 3127 3131 3134 3138 3142 3144 3148 3151 3154 3157 3158 3161 3164 3165 3168 3169 3171 3173 3175 3176 3177 3178
3101 3099 3101 3102 3101 3099 3098 3099 3101 3102 3105 3105 3104 3104 3103 3106 3109 3113 3116 3119 3121 3124 3126 3129 3132 3135 3138 3140 3143 3148 3152 3154 3156 3158 3161 3164 3165 3166 3167 3169 3171 3172 3175 3177
3093 3094 3096 3098 3096 3093 3094 3093 3095 3098 3100 3103 3105 3105 3104 3106 3108 3109 3111 3115 3118 3120 3121 3126 3129 3132 3136 3138 3141 3146 3150 3153 3154 3155 3158 3160 3162 3164 3165 3167 3169 3170 3172 3174
3089 3089 3090 3091 3090 3089 3088 3089 3091 3094 3097 3099 3101 3104 3104 3105 3106 3107 3108 3110 3113 3116 3119 3124 3127 3129 3133 3136 3140 3144 3147 3149 3152 3154 3155 3156 3159 3161 3163 3164 3166 3167 3168 3170
3084 3085 3086 3084 3084 3084 3086 3085 3086 3088 3092 3095 3097 3099 3102 3102 3103 3105 3106 3108 3109 3113 3118 3122 3124 3127 3130 3134 3137 3141 3145 3146 3148 3150 3152 3153 3155 3158 3160 3161 3162 3163 3165 3167